Find Starlink 30562

NORAD ID: 58033 Int'l Des: 2023-156 Owner: SPXS Country: US Constellation: starlink operational
LEOCIRCULAR

現在のビュー

3D地球を読み込み中...

About Starlink 30562

Starlink 30562 (NORAD 58033) is a starlink constellation satellite (v2 mini) launched Oct 9, 2023 by SPXS of US. It operates in LEO, CIRCULAR orbit with a mass of 730.00 kg.

次回通過

Passes for default location (London). Set your location on the main map for personalized predictions.

高度履歴

Loading altitude history...

軌道要素

1 58033U 23156F 26248.46853693 -.00000019 00000-0 10582-4 0 9993
2 58033 53.1620 52.0023 0000968 81.8091 278.3021 15.34395249162579
Epoch: Sep 5, 2026 • Age: 6 hours

現在のステータス

高度 477.7 km
遠地点 / 近地点 N/A
速度 7.63 km/s
衛星直下点 -42.89°S, 35.35°E
打ち上げ日 Oct 9, 2023
運用期間 2.9 years
タイプ internet

技術仕様

分類 Payload
質量 730.00 kg
乾燥質量 700.00 kg
総質量 730.00 kg
長さ 0.30 m
直径 4.10 m
スパン 29.00 m
形状 Box + pan
製造者 SPXS
バスタイプ Starlink V2M
フェーズステータス In Orbit
所有者/国 SPXS/US

Most Searched